Humidity-temperature Sensor

Selected Measurement Type: Air Temperature

 
Air Temperature [°C]     6 entries per hour
Showing data from 11/12/2021 (00:00:00 Z) to 11/5/2021 (00:01:00 Z)
Previous Next [ Day | 3-Days | 7-Days ]
First Last
Prev [ Day | 3-Days | 7-Days ] Next
First Last

Start Time:     :
End Time:     :     
Time (in GMT) :00 :50 :40 :30 :20 :10
Previous Next [ Day | 3-Days | 7-Days ]
First Last
Prev [ Day | 3-Days | 7-Days ] Next
First Last


123 => good data
MM => data is determined as missing
-- => data not received/configured
Back to Top Back to Top
11/12/2021 00:00 to 23:10 23.61 23.19 23.60 23.93 23.97 23.88
11/11/2021 23:00 to 22:10 23.95 23.90 23.87 23.79 23.93 23.82
11/11/2021 22:00 to 21:10 23.77 23.82 23.73 23.81 23.83 23.76
11/11/2021 21:00 to 20:10 23.58 23.80 23.64 23.65 23.85 23.86
11/11/2021 20:00 to 19:10 23.71 24.05 23.91 23.77 23.77 23.90
11/11/2021 19:00 to 18:10 23.72 23.76 23.68 23.66 23.41 23.33
11/11/2021 18:00 to 17:10 23.55 23.38 23.36 23.43 23.34 23.40
11/11/2021 17:00 to 16:10 23.33 23.26 23.43 23.65 23.66 23.51
11/11/2021 16:00 to 15:10 23.59 23.51 23.45 23.49 23.55 23.42
11/11/2021 15:00 to 14:10 23.39 23.38 23.33 23.31 23.25 23.30
11/11/2021 14:00 to 13:10 23.25 23.18 23.11 23.17 23.24 23.19
11/11/2021 13:00 to 12:10 22.97 23.24 23.23 23.17 23.16 23.01
11/11/2021 12:00 to 11:10 23.21 23.12 23.21 23.24 23.21 23.15
11/11/2021 11:00 to 10:10 23.12 23.01 23.14 22.90 22.95 23.16
11/11/2021 10:00 to 9:10 23.07 23.06 23.10 22.98 23.24 23.15
11/11/2021 09:00 to 8:10 23.08 23.39 23.16 23.16 23.15 23.22
11/11/2021 08:00 to 7:10 22.94 23.19 23.23 23.34 23.22 23.21
11/11/2021 07:00 to 6:10 23.33 23.33 23.21 23.38 23.31 23.39
11/11/2021 06:00 to 5:10 23.36 23.44 23.46 23.32 23.36 23.28
11/11/2021 05:00 to 4:10 23.36 23.36 23.36 23.32 23.38 23.32
11/11/2021 04:00 to 3:10 23.45 23.35 23.44 23.34 23.43 23.45
11/11/2021 03:00 to 2:10 23.45 23.42 23.52 23.39 23.51 23.38
11/11/2021 02:00 to 1:10 23.47 23.56 23.63 23.42 23.46 23.45
11/11/2021 01:00 to 0:10 23.61 23.67 23.72 23.79 23.86 23.86
11/11/2021 00:00 to 23:10 23.95 23.89 23.88 24.03 23.92 23.87
11/10/2021 23:00 to 22:10 23.93 24.08 23.83 23.68 23.63 23.71
11/10/2021 22:00 to 21:10 23.46 23.50 23.37 23.48 23.71 23.77
11/10/2021 21:00 to 20:10 23.54 23.57 23.51 23.58 23.46 23.49
11/10/2021 20:00 to 19:10 23.48 23.14 23.46 23.31 23.50 23.44
11/10/2021 19:00 to 18:10 23.31 23.09 23.01 23.18 23.44 23.68
11/10/2021 18:00 to 17:10 23.65 23.64 23.63 23.57 23.57 23.51
11/10/2021 17:00 to 16:10 23.47 23.53 23.44 23.42 23.60 23.54
11/10/2021 16:00 to 15:10 23.57 23.57 23.63 23.57 23.58 23.51
11/10/2021 15:00 to 14:10 23.41 23.35 23.50 23.42 23.42 23.48
11/10/2021 14:00 to 13:10 23.47 23.44 23.20 23.17 23.33 23.37
11/10/2021 13:00 to 12:10 23.36 23.33 23.24 23.16 23.20 23.17
11/10/2021 12:00 to 11:10 23.17 23.23 23.32 23.25 23.37 23.44
11/10/2021 11:00 to 10:10 23.27 23.28 23.22 23.36 23.14 23.27
11/10/2021 10:00 to 9:10 23.32 23.31 23.50 23.30 23.50 23.37
11/10/2021 09:00 to 8:10 23.40 23.36 23.58 23.58 23.43 23.33
11/10/2021 08:00 to 7:10 23.40 23.31 23.29 23.22 23.42 23.31
11/10/2021 07:00 to 6:10 23.39 23.30 23.25 23.26 23.35 23.38
11/10/2021 06:00 to 5:10 23.39 23.28 23.36 23.38 23.36 23.43
11/10/2021 05:00 to 4:10 23.42 23.46 23.52 23.42 23.49 23.46
11/10/2021 04:00 to 3:10 23.58 23.46 23.56 23.42 23.52 23.50
11/10/2021 03:00 to 2:10 23.54 23.39 23.59 23.74 23.63 23.54
11/10/2021 02:00 to 1:10 23.82 23.66 23.67 23.78 23.86 23.82
11/10/2021 01:00 to 0:10 23.81 23.80 23.95 23.96 23.87 23.82
11/10/2021 00:00 to 23:10 23.85 23.86 23.73 23.80 23.78 23.78
11/9/2021 23:00 to 22:10 23.84 23.74 23.77 23.91 23.82 23.87
11/9/2021 22:00 to 21:10 23.94 24.18 24.04 23.97 23.98 24.04
11/9/2021 21:00 to 20:10 24.02 24.08 24.21 24.08 24.13 24.06
11/9/2021 20:00 to 19:10 23.99 24.11 24.04 24.02 23.92 23.93
11/9/2021 19:00 to 18:10 23.93 23.90 23.86 23.94 23.81 23.84
11/9/2021 18:00 to 17:10 23.78 23.51 23.72 23.57 23.57 23.67
11/9/2021 17:00 to 16:10 23.74 24.08 24.21 24.14 24.17 24.12
11/9/2021 16:00 to 15:10 24.12 23.99 23.87 23.96 24.09 23.54
11/9/2021 15:00 to 14:10 23.47 23.65 23.55 23.22 23.32 23.29
11/9/2021 14:00 to 13:10 23.29 23.11 22.71 22.54 22.40 22.83
11/9/2021 13:00 to 12:10 23.63 23.10 22.94 22.84 22.54 22.29
11/9/2021 12:00 to 11:10 22.25 22.75 22.82 22.87 22.74 22.52
11/9/2021 11:00 to 10:10 22.33 22.22 22.55 22.13 21.98 21.93
11/9/2021 10:00 to 9:10 22.17 22.53 22.95 22.85 22.41 22.47
11/9/2021 09:00 to 8:10 22.50 22.77 22.49 22.07 22.05 23.15
11/9/2021 08:00 to 7:10 23.49 23.39 23.15 23.29 23.22 23.10
11/9/2021 07:00 to 6:10 22.90 23.00 22.95 23.02 23.13 22.93
11/9/2021 06:00 to 5:10 23.45 23.42 23.43 23.45 23.56 23.35
11/9/2021 05:00 to 4:10 23.40 23.36 23.29 23.40 23.69 23.66
11/9/2021 04:00 to 3:10 23.67 23.67 23.98 24.01 24.10 24.05
11/9/2021 03:00 to 2:10 24.14 24.06 23.61 23.78 23.68 23.49
11/9/2021 02:00 to 1:10 23.41 23.41 23.31 23.22 23.29 23.17
11/9/2021 01:00 to 0:10 23.30 23.25 23.11 23.11 23.86 23.71
11/9/2021 00:00 to 23:10 23.75 23.70 23.64 23.65 23.80 23.63
11/8/2021 23:00 to 22:10 23.69 23.43 23.38 23.34 23.43 23.29
11/8/2021 22:00 to 21:10 22.97 23.00 22.78 23.15 23.07 23.22
11/8/2021 21:00 to 20:10 23.68 23.59 23.57 23.63 23.76 23.73
11/8/2021 20:00 to 19:10 23.68 23.56 23.49 23.31 23.37 23.64
11/8/2021 19:00 to 18:10 23.20 23.87 23.87 23.82 23.80 23.88
11/8/2021 18:00 to 17:10 23.71 23.62 23.80 23.77 23.58 23.64
11/8/2021 17:00 to 16:10 23.67 23.61 23.57 23.55 23.68 23.58
11/8/2021 16:00 to 15:10 23.63 23.52 23.20 23.35 23.67 23.70
11/8/2021 15:00 to 14:10 23.80 23.74 23.92 23.89 23.79 23.73
11/8/2021 14:00 to 13:10 23.83 23.51 23.33 23.39 23.35 23.27
11/8/2021 13:00 to 12:10 23.19 23.40 23.35 23.21 23.29 23.31
11/8/2021 12:00 to 11:10 23.41 23.38 23.43 23.33 23.35 23.48
11/8/2021 11:00 to 10:10 23.17 23.38 23.23 23.31 23.09 23.36
11/8/2021 10:00 to 9:10 23.29 23.34 23.29 23.28 23.34 23.29
11/8/2021 09:00 to 8:10 23.37 23.24 23.16 23.22 23.24 23.25
11/8/2021 08:00 to 7:10 23.32 23.32 23.24 23.32 23.17 23.30
11/8/2021 07:00 to 6:10 23.33 23.36 23.23 23.22 23.43 23.32
11/8/2021 06:00 to 5:10 23.30 23.28 23.28 23.37 23.44 23.46
11/8/2021 05:00 to 4:10 23.41 23.42 23.53 23.57 23.44 23.46
11/8/2021 04:00 to 3:10 23.53 23.54 23.56 23.56 23.51 23.64
11/8/2021 03:00 to 2:10 23.56 23.58 23.58 23.50 23.38 23.55
11/8/2021 02:00 to 1:10 23.39 23.44 23.50 23.44 23.49 23.38
11/8/2021 01:00 to 0:10 23.39 23.52 23.51 23.40 23.38 23.47
11/8/2021 00:00 to 23:10 23.50 23.15 22.99 23.09 22.94 23.25
11/7/2021 23:00 to 22:10 23.55 23.10 22.82 23.54 23.79 23.68
11/7/2021 22:00 to 21:10 23.72 23.57 23.59 23.75 23.73 23.79
11/7/2021 21:00 to 20:10 23.66 23.59 23.55 23.56 23.66 23.60
11/7/2021 20:00 to 19:10 23.65 23.56 23.62 23.67 23.64 23.45
11/7/2021 19:00 to 18:10 23.29 23.27 23.09 23.06 23.23 23.46
11/7/2021 18:00 to 17:10 23.41 23.35 23.29 23.65 22.86 22.66
11/7/2021 17:00 to 16:10 22.42 22.72 22.42 22.67 23.09 23.10
11/7/2021 16:00 to 15:10 23.17 23.59 23.67 23.61 23.54 23.64
11/7/2021 15:00 to 14:10 23.81 23.70 23.70 23.74 23.78 23.82
11/7/2021 14:00 to 13:10 23.75 23.51 23.38 23.35 23.38 23.20
11/7/2021 13:00 to 12:10 23.26 23.25 23.40 23.41 23.46 23.40
11/7/2021 12:00 to 11:10 23.23 23.23 23.25 23.13 23.37 23.23
11/7/2021 11:00 to 10:10 23.31 23.29 23.28 23.33 23.18 23.03
11/7/2021 10:00 to 9:10 23.27 23.26 23.20 23.31 23.22 23.25
11/7/2021 09:00 to 8:10 23.22 23.14 23.16 23.12 23.22 23.19
11/7/2021 08:00 to 7:10 23.22 23.28 23.25 23.17 23.27 23.23
11/7/2021 07:00 to 6:10 23.39 23.30 23.36 23.26 23.39 23.35
11/7/2021 06:00 to 5:10 23.25 23.39 23.36 23.25 23.45 23.42
11/7/2021 05:00 to 4:10 23.28 23.61 23.46 23.49 23.51 23.48
11/7/2021 04:00 to 3:10 23.36 23.52 23.39 23.47 23.39 23.52
11/7/2021 03:00 to 2:10 23.63 23.59 23.40 23.60 23.51 23.47
11/7/2021 02:00 to 1:10 23.56 23.62 23.52 23.57 23.59 23.42
11/7/2021 01:00 to 0:10 23.56 23.68 23.57 23.67 23.56 23.66
11/7/2021 00:00 to 23:10 23.62 23.60 23.60 23.69 23.65 23.65
11/6/2021 23:00 to 22:10 23.64 23.64 23.58 23.71 23.57 23.55
11/6/2021 22:00 to 21:10 23.44 23.48 23.46 23.48 23.73 23.46
11/6/2021 21:00 to 20:10 23.65 23.63 23.72 23.69 23.41 23.31
11/6/2021 20:00 to 19:10 23.10 23.04 23.08 23.04 23.14 22.91
11/6/2021 19:00 to 18:10 23.32 23.46 23.99 23.73 23.69 23.64
11/6/2021 18:00 to 17:10 23.52 23.74 23.47 23.58 23.45 23.55
11/6/2021 17:00 to 16:10 23.46 23.57 23.52 23.50 23.58 23.35
11/6/2021 16:00 to 15:10 23.15 23.11 23.46 23.48 23.26 22.93
11/6/2021 15:00 to 14:10 22.94 22.67 22.48 22.26 22.20 22.37
11/6/2021 14:00 to 13:10 22.75 22.67 22.52 22.29 22.57 22.38
11/6/2021 13:00 to 12:10 22.26 22.22 22.36 22.30 22.60 22.75
11/6/2021 12:00 to 11:10 22.87 22.96 22.95 22.84 22.67 22.57
11/6/2021 11:00 to 10:10 22.57 22.55 23.23 23.09 23.08 23.02
11/6/2021 10:00 to 9:10 23.09 22.32 22.75 22.71 22.73 22.69
11/6/2021 09:00 to 8:10 22.63 22.57 22.58 22.53 22.26 21.70
11/6/2021 08:00 to 7:10 21.95 21.97 21.85 21.92 22.06 21.59
11/6/2021 07:00 to 6:10 21.58 21.29 21.27 21.43 21.66 21.97
11/6/2021 06:00 to 5:10 22.21 21.91 21.74 21.81 22.63 22.36
11/6/2021 05:00 to 4:10 22.12 22.13 22.10 21.88 22.37 22.65
11/6/2021 04:00 to 3:10 22.63 22.53 22.52 22.50 22.36 22.47
11/6/2021 03:00 to 2:10 22.64 22.30 22.26 22.49 22.85 22.92
11/6/2021 02:00 to 1:10 22.42 22.64 22.28 22.31 22.20 22.28
11/6/2021 01:00 to 0:10 22.09 21.96 22.24 22.06 22.12 21.65
11/6/2021 00:00 to 23:10 21.70 21.92 21.98 21.78 21.98 21.98
11/5/2021 23:00 to 22:10 21.90 22.20 22.90 22.70 22.37 22.68
11/5/2021 22:00 to 21:10 22.81 23.53 23.72 23.71 23.55 23.58
11/5/2021 21:00 to 20:10 23.65 23.59 23.58 23.47 23.47 23.41
11/5/2021 20:00 to 19:10 23.21 23.22 22.80 23.18 23.64 23.49
11/5/2021 19:00 to 18:10 23.24 23.15 23.06 22.89 22.59 22.50
11/5/2021 18:00 to 17:10 22.32 23.39 23.63 23.91 23.79 23.72
11/5/2021 17:00 to 16:10 23.78 23.83 23.78 23.69 23.61 23.20
11/5/2021 16:00 to 15:10 23.09 23.10 23.55 23.55 23.68 23.38
11/5/2021 15:00 to 14:10 23.34 23.36 23.69 23.44 23.44 23.74
11/5/2021 14:00 to 13:10 23.45 23.36 23.37 23.80 23.88 23.76
11/5/2021 13:00 to 12:10 23.81 23.82 23.85 23.86 23.60 23.74
11/5/2021 12:00 to 11:10 23.76 23.75 23.57 23.34 23.30 23.49
11/5/2021 11:00 to 10:10 23.43 23.35 23.33 23.46 23.39 23.39
11/5/2021 10:00 to 9:10 23.54 23.82 23.82 24.11 24.12 23.90
11/5/2021 09:00 to 8:10 23.91 23.77 23.29 23.59 23.55 23.51
11/5/2021 08:00 to 7:10 23.65 23.50 23.61 23.48 23.32 23.40
11/5/2021 07:00 to 6:10 23.43 23.31 23.57 23.57 23.51 23.58
11/5/2021 06:00 to 5:10 23.53 23.50 23.47 23.59 23.45 23.47
11/5/2021 05:00 to 4:10 23.53 23.50 23.52 23.57 23.55 23.48
11/5/2021 04:00 to 3:10 23.66 23.56 23.41 23.52 23.50 23.47
11/5/2021 03:00 to 2:10 23.57 23.54 23.50 23.61 23.53 23.55
11/5/2021 02:00 to 1:10 23.54 23.53 23.53 23.73 23.84 23.65
11/5/2021 01:00 to 0:10 23.73 23.80 23.57 23.84 23.80 23.80